Chiang Mai International Airport
VTCC : now visible

Airfield :











YOU CAN JOIN US ON...

 
LOGIN :

Register | Disclaimer

   EN    FR    IT 

 









Legend :    VFR   Marginal VFR   IFR   Intensive IFR   Very Intensive IFR
Visi :
Ceiling :
>= 8 km
>= 3000ft
5 to 8 km
1000 to 3000 ft
1500m to 5 km
500 to 1000 ft
800 to 1500m
200 to 500 ft
< 800m
< 200 ft
Symbols :   Thunderstorms  Fog  Heavy snow  Heavy precipitations  Wind > 20 kt






- Airport Elevation : 1036 ft
- IATA code : CNX


VTCC - Chiang Mai International

CURRENT METAR :
  • 300200Z 13004KT 070V200 9999 FEW035 30/21 Q1012 NOSIG

EXPIRED METARs :
  • 300130Z VRB02KT 9999 SCT035 30/22 Q1012 NOSIG
  • 300100Z 02005KT 330V060 9999 SCT035 29/22 Q1012 NOSIG
  • 300030Z 02004KT 340V040 9999 FEW035 28/22 Q1011 NOSIG
  • 300000Z 03004KT 350V070 9999 SCT035 27/22 Q1011 NOSIG
  • 292330Z 03005KT 9999 FEW035 27/21 Q1011 NOSIG

TAF TAF VTCC
Valid from the 30 at 00:00 until the 31 at 06:00 UTC


292300Z 3000/3106 22005KT 9999 SCT035
TEMPO 3007/3013 23015G30KT 4000 TSRA FEW025CB BKN030
VTBB FIR / Asia



MET'MAP, your aeronautical weather chart ! - Copyright ORBIFLY December 2007 - Disclaimer

ORBIFLY MET'MAP TEAM :

Programming & Development : Alexandra Zaïnal
Concept & original design : Baudouin d'Aumeries
Assistance for programming : Marc-Olivier Méhu
Technical & hardware support : Manuel Goepfert

Contact : metmap@orbifly.com




SOURCES & CREDITS :

   NOAA       Earth
Advisory